Flag for US Minor Outlying Islands Weather past 2 weeks in Midway, US Minor Outlying Islands

73 °F

Passing clouds.

Feels Like: 76 °F
Forecast: 70 / 75 °F
Wind: 10 mph from Northeast

Location: Midway Island Naval Air Facility

Current Time: Nov 25, 2015 at 6:21:29 PM

Latest Report: Nov 25, 2015 at 5:01 PM

Visibility: 10 mi

Pressure: 30.24 "Hg

Humidity: 64%

Dew point: 60 °F

Location of MidwayLocation

Historic Weather in Midway — Graph


Midway temperature yesterday

Maximum temperature yesterday: 74 °F (at 1:01 PM)
Minimum temperature yesterday: 67 °F (at 12:01 AM)
Average temperature yesterday: 70 °F

Past Weeks' High & Low Weather Summary

High82 °F (Nov 12, 1:13 PM)94% (Nov 14, 11:43 PM)30.33 "Hg (Nov 14, 11:43 PM)
Low64 °F (Nov 17, 4:01 AM)47% (Nov 18, 4:01 AM)29.85 "Hg (Nov 15, 4:01 PM)
Average72 °F69%30.15 "Hg
* Reported Nov 10 4:01 PM — Nov 25 4:01 PM, Midway, Weather by CustomWeather, © 2015

Note: Actual official high and low records may vary slightly from our data, if they occured in-between our weather recording intervals... More about our weather records


Midway weather history for previous 24 hours

Time TempWeatherWind HumidityBarometerVisibility
4:01 PM
Wed, Nov 25
74 °FBroken clouds.8 mph62%30.24 "Hg10 mi
3:01 PM75 °FPassing clouds.7 mph58%30.24 "Hg10 mi
2:01 PM75 °FPassing clouds.7 mph58%30.24 "Hg10 mi
1:01 PM76 °FSunny.8 mph54%30.25 "Hg10 mi
12:01 PM75 °FOvercast.7 mph58%30.27 "Hg10 mi
11:01 AM75 °FPartly sunny.7 mph52%30.29 "Hg10 mi
10:01 AM73 °FPartly sunny.8 mph55%30.29 "Hg10 mi
9:01 AM72 °FPartly sunny.7 mph59%30.28 "Hg10 mi
8:01 AM71 °FOvercast.10 mph59%30.27 "Hg10 mi
7:01 AM70 °FPassing clouds.10 mph64%30.25 "Hg10 mi
6:01 AM70 °FPassing clouds.10 mph61%30.24 "Hg10 mi
5:01 AM69 °FPassing clouds.10 mph61%30.24 "Hg10 mi
4:01 AM70 °FOvercast.16 mph61%30.24 "Hg10 mi
3:01 AM69 °FPassing clouds.12 mph61%30.25 "Hg10 mi
2:01 AM69 °FOvercast.13 mph63%30.26 "Hg10 mi
1:01 AM69 °FPassing clouds.16 mph66%30.26 "Hg10 mi
12:01 AM69 °FOvercast.15 mph63%30.28 "Hg10 mi
11:01 PM
Tue, Nov 24
69 °FPassing clouds.13 mph63%30.28 "Hg10 mi
10:01 PM68 °FPassing clouds.15 mph65%30.28 "Hg10 mi
9:01 PM68 °FClear.14 mph65%30.28 "Hg10 mi
8:01 PM69 °FPassing clouds.12 mph63%30.26 "Hg10 mi
7:01 PM69 °FPartly cloudy.8 mph66%30.25 "Hg10 mi
6:01 PM69 °FPassing clouds.14 mph63%30.23 "Hg10 mi
Weather by CustomWeather, © 2015

See weather overviewHow to use our weather pages